Regional Weather Roundup
Issued by NWS Charleston, SC

Current Version | Previous Version | Text Only | Print | Product List | Glossary Off
Versions: 1 2 3 4 5 6 7 8 9 10 11 12 13 14 15 16 17 18 19 20 21 22 23 24 25 26 27 28 29 30 31 32 33 34 35 36 37 38 39 40 41 42 43 44 45 46 47 48 49 50
000 ASUS42 KCHS 222325 RWRCHS REGIONAL WEATHER ROUNDUP NATIONAL WEATHER SERVICE CHARLESTON SC 700 PM EDT WED OCT 22 2014 NOTE: "FAIR" INDICATES FEW OR NO CLOUDS BELOW 12,000 FEET WITH NO SIGNIFICANT WEATHER AND/OR OBSTRUCTIONS TO VISIBILITY. NOT ALL STATIONS ARE QUALITY CONTROLLED BY THE NATIONAL WEATHER SERVICE. USE DATA WITH CAUTION...ESPECIALLY DEWPOINT OBSERVATIONS. SCZ027-030-031-034>040-042>050-230000- ...SOUTH CAROLINA... CITY SKY/WX TMP DP RH WIND PRES REMARKS N CHARLESTON CLEAR 59 44 57 N7 30.02R WATERFRONT PRK N/A 66 N/A N/A N9 N/A FORT JOHNSON NOT AVBL JOHNS ISLAND CLEAR 59 46 63 CALM 30.03R PINOPOLIS NOT AVBL MONCKS CORNER FAIR 57 52 82 CALM 30.02R SUMMERVILLE FAIR 55 50 82 CALM 30.04R BEAUFORT MCAS CLEAR 62 46 55 CALM 30.03R BEAUFORT ARPT FAIR 57 50 77 CALM 30.03R HILTON HEAD IS CLEAR 64 43 45 N5 30.04R GEORGETOWN NOT AVBL WALTERBORO CLEAR 55 45 67 CALM 30.04R ORANGEBURG CLEAR 63 40 42 CALM 30.04R BARNWELL FAIR 57 46 67 CALM 30.05R AIKEN FAIR 61 45 55 NW3 30.08S MANNING FAIR 57 48 72 CALM 30.02S KINGSTREE NOT AVBL COLUMBIA CLEAR 65 41 41 CALM 30.03R SUMTER CLEAR 61 44 54 W5 30.01R FLORENCE CLEAR 61 43 51 NW6 30.00S MYRTLE BEACH CLEAR 63 45 51 NW9 29.98S N MYRTLE BEACH CLEAR 61 47 59 NW3 29.97S $$ GAZ063-065-086>088-099>101-113>116-118-119-134-136>141-150-230000- ...GEORGIA... CITY SKY/WX TMP DP RH WIND PRES REMARKS SAVANNAH ARPT CLEAR 63 44 50 CALM 30.04R HUNTER AAF CLEAR 65 42 43 N7 30.02R FORT STEWART CLEAR 61 49 65 CALM 30.02R STATESBORO NOT AVBL SYLVANIA CLEAR 62 54 73 CALM 30.05R CLAXTON FAIR 57 52 82 CALM 30.04S THOMSON CLEAR 57 55 93 CALM 30.10S AUGUSTA-BUSH CLEAR 61 41 47 N7 30.04R AUGUSTA-DANIEL CLEAR 65 42 43 N5 30.05R SWAINSBORO FAIR 61 45 55 MISG 30.06R VIDALIA CLEAR 61 46 59 CALM 30.04S ALMA CLEAR 61 47 59 CALM 30.03R WAYCROSS CLEAR 63 54 72 CALM 30.03R JESUP FAIR 61 54 77 CALM 30.04R BRUNSWICK CLEAR 61 50 67 N5 30.04R SAINT SIMONS CLEAR 64 46 52 N5 30.03R $$ SCZ027-028-034-036>038-045-046-048>050-GAZ119-141-230000- ...LAKE AND SUPPLEMENTAL COASTAL OBSERVATIONS... STATION/POSITION TIME TEMP WIND PRES WAVE SWELL AIR SEA DIR/SP/G HT/PER HT/PER/DIR (UTC) (F) (DEG/KT/KT) (MB) (FT/S) (FT/S/D) UPR LAKE MARION NOT AVBL WINYAH BAY 2300 62 270/ 1 1015.0S LAKE MURRAY 2300 64 350/ 2/ 5 1016.6S ACE BASIN NERRS 2300 61 CALM 1016.0S FORT PULASKI 2300 66 320/ 4/ 5 1017.2R SAPELO ISLAND NOT AVBL $$ ANZ835-935-AMZ111-154-330-350-352-354-374-450-454-472-230000- ...C-MAN AND BUOY OBSERVATIONS... STATION/POSITION TIME TEMP WIND PRES WAVE SWELL AIR SEA DIR/SP/G HT/PER HT/PER/DIR (UTC) (F) (DEG/KT/KT) (MB) (FT/S) (FT/S/D) FOLLY BEACH CMAN 2300 63 340/ 4/ 6 1017.0R BUOY 41004 2300 67 78 320/ 12/ 17 1015.4R 3/ 5 2/ 6 BUOY 41008 2300 67 76 20/ 6/ 10 1016.8R 3/ 6 3/ 50/ 6 5E ST. MARYS GA 2300 77 N/A 3/ 6 FRYING PAN BUOY 2300 66 75 330/ 16/ 19 1015.0R 3/ 4 2/120/11 BUOY 41025 2300 61 310/ 27/ 33 1010.4R 6/ 5 2/ 80/ 9 CAPE LOOKOUT NC 2300 61 330/ 10/ 12 1013.3R BUOY 41002 2200 70 78 310/ 16/ 21 1012.8R 6/ 7 2/ 80/ 9 BUOY 41010 2300 77 80 350/ 16/ 19 1013.6R 3/ 4 2/ 60/10 BUOY 41012 NOT AVBL ST AUGUSTINE FL 2300 69 20/ 18/ 19 1016.5R CAPERS NEARSHORE NOT AVBL FRIPP NEARSHORE NOT AVBL $$

USA.gov is the U.S. government's official web portal to all federal, state and local government web resources and services.